Weather History for Tin City, AK

Change the Weather History Date:

Saturday, January 5, 2013

  Actual Average Record
Temperature  
Mean Temperature 16 °F -  
Max Temperature 26 °F 7 °F 32 °F (2005)
Min Temperature 8 °F -1 °F -23 °F (2003)
Degree Days  
Heating Degree Days 48    
Moisture  
Dew Point 14 °F    
Average Humidity 91    
Maximum Humidity 98    
Minimum Humidity 82    
Precipitation  
Precipitation 0.00 in - - ()
Sea Level Pressure  
Sea Level Pressure 29.41 in    
Wind  
Wind Speed 22 mph (NE)    
Max Wind Speed 69 mph    
Max Gust Speed 46 mph    
Visibility 10 miles    
Events Snow    
Averages and records for this station are not official NWS values.
T = Trace of Precipitation, MM = Missing Value Source: NWS Daily Summary

Daily Weather History Graph

Daily Weather History Graph

Search for Another Location

Airport:

Trip Planner

Search our weather history database for the weather conditions in past years. The results will help you decide how hot, cold, wet, or windy it might be!

Date:

Astronomy

Jan. 05, 2013 Rise Set
Actual Time 12:21 PM AKST 4:14 PM AKST
Civil Twilight 10:56 AM AKST 5:39 PM AKST
Nautical Twilight 9:43 AM AKST 6:51 PM AKST
Astronomical Twilight 8:41 AM AKST 7:54 PM AKST
Moon 3:59 AM AKST (1/5) 12:44 PM AKST (1/5)
Length of Visible Light 6h 42m
Length of Day
3h 53m
Last Quarter, 42% of the Moon is Illuminated
Jan 5
Last Quarter
Jan 11
New
Jan 18
First Quarter
Jan 26
Full
Feb 3
Last Quarter

Hourly Weather History & Observations

Time (AKST) Temp. Windchill Dew Point Humidity Pressure Visibility Wind Dir Wind Speed Gust Speed Precip Events Conditions
12:55 AM 8.6 °F - 6.8 °F 92% 29.55 in 10.0 mi North - - N/A Snow Light Snow Showers
1:55 AM 8.1 °F - 6.8 °F 95% 29.54 in 10.0 mi North - - N/A   Partly Cloudy
2:55 AM 8.6 °F -8.3 °F 7.0 °F 93% 29.52 in 10.0 mi South 15.0 mph 46.0 mph N/A Snow Light Snow Showers
3:55 AM 9.9 °F -1.1 °F 8.6 °F 95% 29.52 in 10.0 mi ENE 6.9 mph 18.4 mph N/A   Mostly Cloudy
4:55 AM 14.4 °F - 12.7 °F 93% 29.49 in 10.0 mi North - - N/A   Scattered Clouds
5:55 AM 15.4 °F - 14.7 °F 97% 29.48 in 10.0 mi North - - N/A   Mostly Cloudy
6:55 AM 17.2 °F 2.2 °F 16.0 °F 95% 29.46 in 10.0 mi NNE 16.1 mph - N/A Snow Light Snow Showers
7:55 AM 16.9 °F - 16.3 °F 98% 29.45 in 10.0 mi North - - N/A Snow Light Snow Showers
8:55 AM 19.8 °F - 18.7 °F 96% 29.43 in 10.0 mi North - - N/A Snow Light Snow Showers
9:55 AM 16.9 °F - 15.1 °F 93% 29.42 in 10.0 mi North - - N/A   Overcast
10:55 AM 24.4 °F - 20.1 °F 84% 29.42 in 10.0 mi North - - N/A   Mostly Cloudy
11:55 AM 25.5 °F 2.7 °F 20.8 °F 82% 29.41 in 10.0 mi East 69.0 mph 178.4 mph N/A   Squalls
12:55 PM 24.1 °F 13.7 °F 21.0 °F 88% 29.41 in 10.0 mi South 10.4 mph - N/A   Overcast
1:55 PM 21.7 °F - 19.6 °F 91% 29.40 in 10.0 mi North - - N/A   Mostly Cloudy
2:55 PM 19.2 °F 1.5 °F 17.2 °F 92% 29.37 in 10.0 mi NNE 25.3 mph - N/A   Mostly Cloudy
3:55 PM 18.9 °F 1.7 °F 16.5 °F 91% 29.36 in 10.0 mi NNE 23.0 mph 32.2 mph N/A   Mostly Cloudy
4:55 PM 18.9 °F 1.0 °F 15.6 °F 87% 29.34 in 10.0 mi NNE 25.3 mph - N/A   Mostly Cloudy
5:55 PM 17.1 °F -2.0 °F 14.2 °F 88% 29.33 in 10.0 mi NNE 27.6 mph - N/A   Mostly Cloudy
6:55 PM 16.5 °F -1.7 °F 12.9 °F 86% 29.33 in 10.0 mi NNE 24.2 mph - N/A   Clear
7:55 PM 16.7 °F -1.8 °F 13.1 °F 86% 29.32 in 10.0 mi NNE 25.3 mph 31.1 mph N/A   Clear
8:55 PM 16.7 °F -1.8 °F 13.1 °F 86% 29.31 in 10.0 mi NE 25.3 mph 31.1 mph N/A   Scattered Clouds
9:55 PM 14.0 °F -6.2 °F 11.7 °F 90% 29.31 in 10.0 mi NNE 27.6 mph - N/A   Overcast
10:55 PM 13.8 °F -4.9 °F 11.5 °F 90% 29.32 in 10.0 mi North 23.0 mph 31.1 mph N/A   Mostly Cloudy
11:55 PM 12.9 °F -7.6 °F 10.8 °F 91% 29.31 in 10.0 mi NNE 27.6 mph - N/A   Mostly Cloudy